星链-32907 (STARLINK-32907)

导读

STARLINK-32907是由美国于2025年2月23日发射的星链系列卫星,星链计划是美国太空探索技术公司(SpaceX)打造的低轨卫星互联网星座项目,该卫星入轨后将助力提升星链系统全球覆盖范围与通信服务能力,为地面用户提供低延迟、高速率的互联网接入服务。

基本信息
目录编号:
63095
目录名称:
STARLINK-32907
国际标识:
2025-037U
轨道中心:
EARTH
卫星名称:
星链-32907
卫星全名:
星链-32907 (STARLINK-32907)
卫星状态:
在轨 (已飞行558 天)
发射日期:
2025-02-23 UTC
国别 :
美国 (US)
星等 :
--
轨道信息
数据来源 国际轨道数据
星历时间: 2026-09-04T14:00:02+0800
8小时前
查看轨道信息
半长轴: 6873.465km
偏心率: 0.0001349
轨道倾角: 70.001°
近地点辐角 312.490°
升交点赤经 263.957°
平近点角 141.857°
近地点: 494.4km
远地点: 496.256km
周期: 94.520分钟
每日圈数: 15.234886
详细信息
固有亮度:
5
最大亮度:
2.5
卫星平台:
Starlink V1.0
覆盖范围:
全球
运营商:
太空探索技术公司
运营商所在国:
美国
制造商(研发单位):
太空探索技术公司
制造商所在国:
美国
使用方式:
暂无
卫星简介
Starlink 计划是 SpaceX 推出的全球卫星互联网项目,通过发射低轨道卫星,为全球尤其是偏远地区提供高速、低延迟的互联网服务。自 2019 年起,Starlink 已部署数千颗卫星,旨在缩小全球数字鸿沟,推动互联网普及。该项目还为军事、航空等行业提供通信支持,带来广泛经济效益。
2D轨道图
3D轨道图
轨道高度分析图
轨道倾角分析图
轨道综合分析图
查看轨道综合分析图
交会数据列表
事件ID 空间交会对象 最接近时刻(TCA) 交会距离 交会风险概率(CRP) 交会风险指数(CRI) 操作
CDM_260906-031706-309506-548121
2026-09-06T
03:17:47+0000
0.917 km
远距离
3.108124E-5 中风险 0.65
CDM_260905-222106-309506-688721
2026-09-05T
22:21:54+0000
0.856 km
远距离
1.297576E-5 中风险 0.57
CDM_260906-031606-309506-617921
2026-09-06T
03:16:05+0000
1.206 km
极远距离
1.249061E-5 中风险 0.57
CDM_260905-214706-309506-617921
2026-09-05T
21:47:47+0000
1.593 km
极远距离
4.903851E-6 低风险 0.49
CDM_260905-154305-365406-309521
2026-09-05T
15:43:48+0000
1.691 km
极远距离
4.431642E-6 低风险 0.48
CDM_260905-214906-309506-548121
2026-09-05T
21:49:29+0000
1.704 km
极远距离
3.855616E-6 低风险 0.47
CDM_260905-054506-309506-356521
2026-09-05T
05:45:41+0000
1.724 km
极远距离
2.960216E-6 低风险 0.44
CDM_260905-011406-309506-312121
2026-09-05T
01:14:44+0000
1.910 km
极远距离
2.93298E-6 低风险 0.44
CDM_260905-183306-309506-890321
2026-09-05T
18:33:54+0000
2.011 km
极远距离
2.863108E-6 低风险 0.44
CDM_260905-094804-973306-309521
2026-09-05T
09:48:07+0000
2.002 km
极远距离
2.65856E-6 低风险 0.43